Regional Weather Roundup
Issued by NWS Northern Indiana

Home | Current Version | Previous Version | Text Only | Print | Product List | Glossary Off
Versions: 1 2 3 4 5 6 7 8 9 10 11 12 13 14 15 16 17 18 19 20 21 22 23 24 25 26 27 28 29 30 31 32 33 34 35 36 37 38 39 40 41 42 43 44 45 46 47 48 49 50

000
ASUS43 KIWX 262100
RWRIWX

KIWX WEATHER ROUNDUP
NATIONAL WEATHER SERVICE NORTHERN INDIANA
500 PM EDT THU MAY 26 2016

NOTE: "FAIR" INDICATES FEW OR NO CLOUDS BELOW 12,000 FEET WITH NO
SIGNIFICANT WEATHER AND/OR OBSTRUCTIONS TO VISIBILITY.

* THESE STATIONS ARE NOT UNDER NWS QUALITY CONTROL. THEY ALSO MAY NOT
  REPORT WEATHER SUCH AS PRECIPITATION OR FOG.

INZ001>027-262200-
NORTHERN INDIANA

CITY           SKY/WX    TMP DP  RH WIND       PRES   REMARKS
GARY*          PTSUNNY   82  68  61 SW17      29.87F
SOUTH BEND     MOSUNNY   82  60  47 SW17G24   29.89F
ELKHART*       PTSUNNY   84  64  51 S10       29.90F
GOSHEN         MOSUNNY   81  60  48 SW12G20   29.90F
ANGOLA*        SUNNY     84  79  84 SW9       29.91F HX  96
FORT WAYNE     PTSUNNY   82  63  52 SW10      29.92F

$$
INZ028>050-262200-
CENTRAL INDIANA

CITY           SKY/WX    TMP DP  RH WIND       PRES   REMARKS
LAFAYETTE      MOSUNNY   79  61  53 SW8       29.91F
KOKOMO*        MOSUNNY   81  63  54 SW7       29.92F
MUNCIE*        CLOUDY    80  63  55 S8        29.95R
INDIANAPOLIS   PTSUNNY   76  65  68 S13       29.95F

$$
MIZ043>046-050>051-056>058-064>065-071>073-077>080-262200-
SOUTHWEST LOWER MICHIGAN

CITY           SKY/WX    TMP DP  RH WIND       PRES   REMARKS
BATTLE CREEK   SUNNY     82  63  52 SW12      29.90F
BENTON HARBOR  CLOUDY    78  65  63 W13       29.88R
COLDWATER*     PTSUNNY   83  59  42 S10       29.91S
HILLSDALE*     MOSUNNY   82  58  43 S8        29.93S
HOLLAND        PTSUNNY   76  67  73 W10       29.89S
GRAND RAPIDS   PTSUNNY   86  66  51 SW7       29.87F
KALAMAZOO      MOSUNNY   84  61  45 SW10      29.89S
STURGIS*       MOSUNNY   82  59  46 S8        29.89F
THREE RIVERS*  FAIR      84  56  38 SW8G21    29.89F

$$
OHZ001>008-015>018-024>025-262200-
NORTHWEST OHIO

CITY           SKY/WX    TMP DP  RH WIND       PRES   REMARKS
DEFIANCE       PTSUNNY   84  64  50 SW12G20   29.92S
FINDLAY        CLOUDY    84  65  52 SW13      29.93F
TOLEDO EXPRESS CLOUDY    84  63  49 S13       29.91S
TOLEDO METCALF PTSUNNY   86  63  45 SW13G20   29.92S
LIMA           CLOUDY    80  66  62 S12       29.95F

$$
AND FOR LAKE MICHIGAN COASTAL AND OPEN LAKE BUOY OBSERVATIONS

STATION/POSITION TEMP    WIND        PRES    VSBY  WAVE
                 AIR SEA DIR/SP/G                  HT/PER
                 (F)     (DEG/KT/KT) (MB)    (MI)  (FT/S)
CALUMET HARBOR    80     200/ 10/ 15 1011.2F
MICHIGAN CITY     69     250/ 11/ 12   N/A
BURNS HARBOR      78     210/ 15/ 20 1012.5R
SAINT JOSEPH      74     200/  4/  6 1012.2R
SOUTH LAKE BUOY   55 49  180/  8/ 10 1011.6          1/ 3
4 MI NW BRIDGMAN  69 64  280/  6/  8   N/A           1
MICHIGAN CITY     64 60  280/  6/  8   N/A           1/ 2

$$
&&




USA.gov is the U.S. government's official web portal to all federal, state and local government web resources and services.